User: anonymous   Login
Location: Whitehorse
(60.7170°N, 135.0500°W)
Time: 06:38:38
(UTC-07:00)
Language:

Cosmos 2219 Rocket - Orbit

View from above orbital plane
View from above orbital plane
View from above satellite
View from above satellite

Ground track
Ground track

The orbit data is extracted from the following two-line orbital elements,

1 22220U 92076B   16272.10685995 -.00000238  00000-0 -95475-4 0  9992
2 22220  70.9988 250.9071 0014847 306.0984 121.8746 14.16404151233665
Epoch (UTC): 28 September 2016 02:33:52
Eccentricity: 0.0014847
inclination: 70.9988°
perigee height: 827 km
apogee height: 848 km
right ascension of ascending node: 250.9071°
argument of perigee: 306.0984°
revolutions per day: 14.16404151
mean anomaly at epoch: 121.8746°
orbit number at epoch: 23366

The dashed part of the orbit path shows where the satellite is in the earth's shadow,  

DLR